Nassau, Bahamas

10:16 PM EDT on September 25, 2017 (GMT -0400)
Nassau

Weather History for 78073 - October, 2012

Change the Weather History Date:

Sunday, October 28, 2012

  Actual Average Record
Temperature  
Mean Temperature 79 °F -  
Max Temperature 83 °F 82 °F - ()
Min Temperature 75 °F 68 °F - ()
Cooling Degree Days 14    
Growing Degree Days 29 (Base 50)    
Moisture  
Dew Point 67 °F    
Average Humidity 68    
Maximum Humidity 94    
Minimum Humidity 48    
Precipitation  
Precipitation 0.00 in 0.08 in - ()
Sea Level Pressure  
Sea Level Pressure 29.70 in    
Wind  
Wind Speed 16 mph ()    
Max Wind Speed 24 mph    
Max Gust Speed 33 mph    
Visibility 6.8 miles    
Events      
T = Trace of Precipitation, MM = Missing Value Source: Averaged Metar Reports

Daily Weather History Graph

Daily Weather History Graph

Search for Another Location

Airport or City:

Trip Planner

Search our weather history database for the weather conditions in past years. The results will help you decide how hot, cold, wet, or windy it might be!

Date:

Astronomy

Oct. 28, 2012 Rise Set
Actual Time 7:15 AM EDT 6:31 PM EDT
Civil Twilight 6:51 AM EDT 6:55 PM EDT
Nautical Twilight 6:24 AM EDT 7:21 PM EDT
Astronomical Twilight 5:58 AM EDT 7:48 PM EDT
Moon 5:47 PM EDT (10/28) 6:09 AM EDT (10/28)
Length of Visible Light 12h 03m
Length of Day
11h 16m
Waxing Gibbous, 99% of the Moon is Illuminated
Oct 28
Waxing Gibbous
Oct 29
Full
Nov 6
Last Quarter
Nov 13
New
Nov 20
First Quarter

Hourly Weather History & Observations

Time (EDT) Temp. Heat Index Dew Point Humidity Pressure Visibility Wind Dir Wind Speed Gust Speed Precip Events Conditions
12:00 AM 77.0 °F - 75.2 °F 94% 29.65 in 6.2 mi West 24.2 mph - N/A   Partly Cloudy
1:00 AM 77.0 °F - 64.4 °F 65% 29.65 in 6.2 mi West 12.7 mph - N/A   Partly Cloudy
2:00 AM 78 °F - 72 °F 77% 29.65 in 8 mi West 16.1 mph - -   Scattered Clouds
2:00 AM 77.0 °F - 69.8 °F 78% 29.64 in 6.2 mi WSW 18.4 mph - N/A   Partly Cloudy
3:00 AM 77.0 °F - 64.4 °F 65% 29.64 in 6.2 mi WSW 19.6 mph - N/A   Partly Cloudy
5:00 AM 75 °F - 67 °F 69% 29.66 in 8 mi West 18.4 mph - -   Partly Cloudy
5:00 AM 75.2 °F - 66.2 °F 73% 29.65 in 6.2 mi West 18.4 mph - N/A   Scattered Clouds
6:00 AM 75.2 °F - 64.4 °F 69% 29.67 in 6.2 mi WSW 21.9 mph - N/A   Scattered Clouds
7:00 AM 75.2 °F - 62.6 °F 65% 29.67 in 6.2 mi WSW 24.2 mph - N/A   Scattered Clouds
8:00 AM 76 °F - 66 °F 64% 29.70 in 9 mi West 17.3 mph - -   Partly Cloudy
8:00 AM 77.0 °F - 66.2 °F 69% 29.70 in 6.2 mi West 17.3 mph 29.9 mph N/A   Scattered Clouds
9:00 AM 77.0 °F - 64.4 °F 65% 29.72 in 6.2 mi West 20.7 mph 32.2 mph N/A   Scattered Clouds
10:00 AM 78.8 °F - 66.2 °F 65% 29.73 in 6.2 mi West 16.1 mph - N/A   Scattered Clouds
11:00 AM 80 °F - 66 °F 54% 29.76 in 9 mi West 18.4 mph - -   Partly Cloudy
11:00 AM 80.6 °F 82.7 °F 66.2 °F 61% 29.75 in 6.2 mi West 18.4 mph 33.4 mph N/A   Scattered Clouds
12:00 PM 78.8 °F - 66.2 °F 65% 29.74 in 6.2 mi West 18.4 mph 29.9 mph N/A   Scattered Clouds
1:00 PM 78.8 °F - 66.2 °F 65% 29.75 in 6.2 mi WSW 20.7 mph - N/A   Partly Cloudy
2:00 PM 83 °F - 66 °F 48% 29.54 in 9 mi West 19.6 mph - -   Scattered Clouds
2:00 PM 82.4 °F 84.6 °F 66.2 °F 58% 29.71 in 6.2 mi West 19.6 mph 33.4 mph N/A   Partly Cloudy
3:00 PM 78.8 °F - 64.4 °F 61% 29.70 in 6.2 mi SW 19.6 mph - N/A   Partly Cloudy
4:00 PM 80.6 °F 83.2 °F 68.0 °F 65% 29.70 in 6.2 mi SW 18.4 mph - N/A   Scattered Clouds
5:00 PM 81 °F - 72 °F 68% 29.70 in 9 mi WSW 19.6 mph - -   Partly Cloudy
5:00 PM 80.6 °F 84.6 °F 71.6 °F 74% 29.69 in 6.2 mi WSW 19.6 mph - N/A   Scattered Clouds
6:00 PM 77.0 °F - 66.2 °F 69% 29.70 in 6.2 mi WSW 15.0 mph - N/A   Scattered Clouds
7:00 PM 77.0 °F - 66.2 °F 69% 29.71 in 6.2 mi WSW 12.7 mph - N/A   Scattered Clouds
8:00 PM 78 °F - 68 °F 64% 29.72 in 9 mi WSW 9.2 mph - -   Partly Cloudy
8:00 PM 78.8 °F - 68.0 °F 69% 29.72 in 6.2 mi WSW 9.2 mph - N/A   Scattered Clouds
9:00 PM 77.0 °F - 64.4 °F 65% 29.73 in 6.2 mi WSW 16.1 mph - N/A   Scattered Clouds
10:00 PM 77.0 °F - 64.4 °F 65% 29.75 in 6.2 mi WSW 15.0 mph - N/A   Scattered Clouds
11:00 PM 75.2 °F - 73.4 °F 94% 29.75 in 6.2 mi WSW 16.1 mph - N/A   Scattered Clouds